Location: Unspecified
(0.0000°N, 0.0000°E)
Time: 00:35:46
(UTC+01:00)

TRAILBLAZER - Pass Details

Date: 04 December 2023
Orbit: 629 x 632 km, 64.6° (Epoch: 27 February)

Event Time Altitude Azimuth Distance (km) Brightness Sun altitude
Exits shadow 05:12:48 40° 227° (SW) 929 5.2 -22.4°
Drops below altitude 10° 05:16:30 10° 177° (S) 2,003 7.5 -21.5°
Sets 05:18:53 0° 170° (S) 2,913 8.5 -21.0°
